Regional Weather Roundup
Issued by NWS

Home | Current Version | Previous Version | Text Only | Print | Product List | Glossary Off
Versions: 1 2 3 4 5 6 7 8 9 10 11 12 13 14 15 16 17 18 19 20 21 22 23 24 25 26 27 28 29 30 31 32 33 34 35 36 37 38 39 40 41 42 43 44 45 46 47 48 49 50

760
ASUS43 KIND 310059
RWRIN

WEATHER ROUNDUP FOR INDIANA
NATIONAL WEATHER SERVICE INDIANAPOLIS IN
900 PM EDT MON MAY 30 2016

NOTE: "FAIR" INDICATES FEW OR NO CLOUDS BELOW 12,000 FEET WITH NO
SIGNIFICANT WEATHER AND/OR OBSTRUCTIONS TO VISIBILITY.

* - STATION DOES NOT REPORT WEATHER SUCH AS PRECIPITATION OR FOG.

+ - STATION NOT QUALITY CONTROLLED BY THE NATIONAL WEATHER SERVICE.
    USE DATA WITH CAUTION...ESPECIALLY DEWPOINT AND RELATIVE
    HUMIDITY OBSERVATIONS.

INZ001>003-010>013-019-020-310200-
NORTHWEST INDIANA

CITY           SKY/WX    TMP DP  RH WIND       PRES   REMARKS
GARY /AIRPORT/ MOCLDY    75  63  64 NE10      29.97R
RENSSELAER +   PTCLDY    79  54  41 W3        29.96S

$$

LMZ046-743>745-310200-
SOUTHERN LAKE MICHIGAN

STATION/POSITION TIME  TEMP    WIND        PRES    WAVE
                       AIR SEA DIR/SP/G            HT
                 (UTC) (F)     (DEG/KT/KT) (MB)    (FT)
BURNS HARBOR     0000   69      80/ 10/ 11 1014.9S
MICHIGAN CITY    0000   68      30/ 10/ 10   N/A
5NW MICH CITY    0000   67 63   60/  6/  6   N/A     0

$$

INZ004-005-014>016-021>024-310200-
NORTH CENTRAL INDIANA

CITY           SKY/WX    TMP DP  RH WIND       PRES   REMARKS
ELKHART        CLEAR     79  59  50 CALM      29.98S
GOSHEN         CLEAR     72  54  53 NE3       29.97S
SOUTH BEND     CLOUDY    74  56  53 N6        29.98R

$$

INZ006>009-017-018-025>027-310200-
NORTHEAST INDIANA

CITY           SKY/WX    TMP DP  RH WIND       PRES   REMARKS
ANGOLA *+        N/A     79  72  78 N3        29.98S
FORT WAYNE     CLOUDY    77  54  44 N5        29.97R

$$

INZ028-029-035-036-043>045-051>053-310200-
WEST CENTRAL INDIANA

CITY           SKY/WX    TMP DP  RH WIND       PRES   REMARKS
CRAWFORDSVL +  PTCLDY    76  55  48 SW3       29.98S
GREENCASTLE +  PTCLDY    73  63  68 CALM      29.99S
LAFAYETTE      CLEAR     76  60  57 W3        29.95S
TERRE HAUTE    MOCLDY    80  58  46 CALM      29.98S

$$

INZ030>032-037>040-046>048-054>057-064-065-310200-
CENTRAL INDIANA

CITY           SKY/WX    TMP DP  RH WIND       PRES   REMARKS
COLUMBUS       CLEAR     79  59  50 W6        29.98S
INDIANAPOLIS   MOCLDY    76  58  53 SW7       29.97S
-EAGLE CREEK   PTCLDY    80  56  43 SW3       29.97S
KOKOMO *+      PTCLDY    81  54  39 W8        29.96S
SHELBYVILLE    CLEAR     81  55  40 W5        29.97S

$$

INZ033-034-041-042-049-050-058-059-310200-
EAST CENTRAL INDIANA

CITY           SKY/WX    TMP DP  RH WIND       PRES   REMARKS
MUNCIE         CLOUDY    83  53  35 CALM      29.97S

$$

INZ060-061-067>069-081>083-085>088-310200-
SOUTHWEST INDIANA

CITY           SKY/WX    TMP DP  RH WIND       PRES   REMARKS
EVANSVILLE     PTCLDY    79  60  52 CALM      29.98S
HUNTINGBURG *+ CLOUDY    79  57  47 CALM      29.98S

$$

INZ062-063-066-070>080-084-089>092-310200-
SOUTH CENTRAL AND SOUTHEAST INDIANA

CITY           SKY/WX    TMP DP  RH WIND       PRES   REMARKS
BLOOMINGTON    PTCLDY    73  62  68 CALM      29.98F
MADISON *+     CLEAR     73  63  68 CALM      30.00S
SEYMOUR +      CLEAR     79  57  47 CALM      29.97S

$$





USA.gov is the U.S. government's official web portal to all federal, state and local government web resources and services.